Time,TemperatureF,DewpointF,PressureIn,WindDirection,WindDirectionDegrees,WindSpeedMPH,WindSpeedGustMPH,Humidity,HourlyPrecipIn,Conditions,Clouds,dailyrainin,SoftwareType,DateUTC
2013-02-10 00:01:00,59.0,54.0,30.22,NNE,33,2.0,6.0,85,0.00,,,0.01,,2013-02-10 05:01:00,
2013-02-10 00:11:00,59.0,54.0,30.22,NNE,33,2.0,6.0,85,0.00,,,0.01,,2013-02-10 05:11:00,
2013-02-10 00:23:00,58.0,54.0,30.22,NE,49,2.0,5.0,87,0.00,,,0.01,,2013-02-10 05:23:00,
2013-02-10 00:32:00,58.0,54.0,30.22,NE,49,2.0,5.0,87,0.00,,,0.01,,2013-02-10 05:32:00,
2013-02-10 00:42:00,58.0,54.0,30.22,NE,49,2.0,5.0,87,0.00,,,0.01,,2013-02-10 05:42:00,
2013-02-10 00:52:00,58.0,54.0,30.22,NE,49,2.0,5.0,87,0.00,,,0.01,,2013-02-10 05:52:00,
2013-02-10 01:02:00,58.0,55.0,30.21,NNE,20,2.0,5.0,89,0.00,,,0.01,,2013-02-10 06:02:00,
2013-02-10 01:11:00,58.0,55.0,30.21,NNE,20,2.0,5.0,89,0.00,,,0.01,,2013-02-10 06:11:00,
2013-02-10 01:21:00,58.0,55.0,30.21,NE,51,2.0,6.0,90,0.00,,,0.01,,2013-02-10 06:21:00,
2013-02-10 01:32:00,58.0,55.0,30.21,NE,49,3.0,10.0,90,0.00,,,0.01,,2013-02-10 06:32:00,
2013-02-10 01:42:00,58.0,55.0,30.21,NE,49,3.0,10.0,90,0.00,,,0.01,,2013-02-10 06:42:00,
2013-02-10 01:51:00,59.0,56.0,30.20,ENE,74,3.0,7.0,90,0.00,,,0.01,,2013-02-10 06:51:00,
2013-02-10 02:01:00,59.0,56.0,30.20,East,88,2.0,7.0,90,0.00,,,0.01,,2013-02-10 07:01:00,
2013-02-10 02:11:00,59.0,56.0,30.20,East,88,2.0,7.0,90,0.00,,,0.01,,2013-02-10 07:11:00,
2013-02-10 02:21:00,60.0,57.0,30.20,ENE,77,3.0,7.0,90,0.00,,,0.01,,2013-02-10 07:21:00,
2013-02-10 02:32:00,60.0,57.0,30.20,ENE,78,2.0,8.0,89,0.00,,,0.01,,2013-02-10 07:32:00,
2013-02-10 02:42:00,60.0,57.0,30.20,ENE,78,2.0,8.0,89,0.00,,,0.01,,2013-02-10 07:42:00,
2013-02-10 02:51:00,60.0,57.0,30.20,East,86,3.0,7.0,90,0.00,,,0.01,,2013-02-10 07:51:00,
2013-02-10 03:01:00,60.0,57.0,30.20,East,86,3.0,7.0,90,0.00,,,0.01,,2013-02-10 08:01:00,
2013-02-10 03:11:00,60.0,57.0,30.20,East,86,3.0,7.0,90,0.00,,,0.01,,2013-02-10 08:11:00,
2013-02-10 03:21:00,60.0,57.0,30.19,ENE,74,3.0,7.0,90,0.00,,,0.01,,2013-02-10 08:21:00,
2013-02-10 03:32:00,59.0,56.0,30.19,ENE,65,3.0,7.0,90,0.00,,,0.01,,2013-02-10 08:32:00,
2013-02-10 03:43:00,59.0,56.0,30.19,ENE,65,3.0,7.0,90,0.00,,,0.01,,2013-02-10 08:43:00,
2013-02-10 03:52:00,59.0,56.0,30.19,ENE,76,2.0,8.0,91,0.00,,,0.01,,2013-02-10 08:52:00,
2013-02-10 04:02:00,59.0,56.0,30.19,NE,55,2.0,7.0,91,0.00,,,0.01,,2013-02-10 09:02:00,
2013-02-10 04:11:00,59.0,56.0,30.19,NE,55,2.0,7.0,91,0.00,,,0.01,,2013-02-10 09:11:00,
2013-02-10 04:21:00,59.0,56.0,30.19,East,90,3.0,7.0,90,0.00,,,0.01,,2013-02-10 09:21:00,
2013-02-10 04:32:00,59.0,56.0,30.19,ENE,63,2.0,9.0,90,0.00,,,0.01,,2013-02-10 09:32:00,
2013-02-10 04:42:00,59.0,56.0,30.19,ENE,63,2.0,9.0,90,0.00,,,0.01,,2013-02-10 09:42:00,
2013-02-10 04:51:00,59.0,56.0,30.19,ENE,66,2.0,7.0,90,0.00,,,0.01,,2013-02-10 09:51:00,
2013-02-10 05:01:00,59.0,56.0,30.19,ESE,113,3.0,8.0,90,0.00,,,0.01,,2013-02-10 10:01:00,
2013-02-10 05:11:00,59.0,56.0,30.19,ESE,113,3.0,8.0,90,0.00,,,0.01,,2013-02-10 10:11:00,
2013-02-10 05:21:00,59.0,56.0,30.19,ENE,68,4.0,7.0,90,0.00,,,0.01,,2013-02-10 10:21:00,
2013-02-10 05:32:00,59.0,56.0,30.19,ENE,65,2.0,6.0,90,0.00,,,0.01,,2013-02-10 10:32:00,
2013-02-10 05:42:00,59.0,56.0,30.19,ENE,65,2.0,6.0,90,0.00,,,0.01,,2013-02-10 10:42:00,
2013-02-10 05:51:00,59.0,56.0,30.20,ESE,113,3.0,9.0,90,0.00,,,0.01,,2013-02-10 10:51:00,
2013-02-10 06:01:00,59.0,56.0,30.20,ENE,72,3.0,7.0,91,0.00,,,0.01,,2013-02-10 11:01:00,
2013-02-10 06:11:00,59.0,56.0,30.20,ENE,72,3.0,7.0,91,0.00,,,0.01,,2013-02-10 11:11:00,
2013-02-10 06:22:00,58.0,55.0,30.20,East,80,3.0,7.0,91,0.00,,,0.01,,2013-02-10 11:22:00,
2013-02-10 06:32:00,58.0,55.0,30.20,East,93,2.0,7.0,91,0.00,,,0.00,,2013-02-10 11:32:00,
2013-02-10 06:42:00,58.0,55.0,30.20,East,93,2.0,7.0,91,0.00,,,0.00,,2013-02-10 11:42:00,
2013-02-10 06:52:00,58.0,56.0,30.20,ENE,71,3.0,6.0,92,0.00,,,0.00,,2013-02-10 11:52:00,
2013-02-10 07:02:00,58.0,56.0,30.20,ENE,78,3.0,7.0,92,0.00,,,0.00,,2013-02-10 12:02:00,
2013-02-10 07:12:00,58.0,56.0,30.20,ENE,78,3.0,7.0,92,0.00,,,0.00,,2013-02-10 12:12:00,
2013-02-10 07:22:00,58.0,56.0,30.21,NE,52,3.0,7.0,92,0.00,,,0.00,,2013-02-10 12:22:00,
2013-02-10 07:32:00,58.0,55.0,30.21,ENE,73,2.0,8.0,91,0.00,,,0.00,,2013-02-10 12:32:00,
2013-02-10 07:42:00,58.0,55.0,30.21,ENE,73,2.0,8.0,91,0.00,,,0.00,,2013-02-10 12:42:00,
2013-02-10 07:52:00,58.0,56.0,30.22,ESE,107,3.0,6.0,92,0.00,,,0.00,,2013-02-10 12:52:00,
2013-02-10 08:02:00,58.0,56.0,30.23,ENE,74,3.0,7.0,92,0.00,,,0.00,,2013-02-10 13:02:00,
2013-02-10 08:12:00,58.0,56.0,30.23,ENE,74,3.0,7.0,92,0.00,,,0.00,,2013-02-10 13:12:00,
2013-02-10 08:21:00,59.0,56.0,30.24,East,96,1.0,6.0,91,0.00,,,0.00,,2013-02-10 13:21:00,
2013-02-10 08:31:00,61.0,58.0,30.24,ENE,73,3.0,7.0,89,0.00,,,0.00,,2013-02-10 13:31:00,
2013-02-10 08:42:00,61.0,58.0,30.24,ENE,73,3.0,7.0,89,0.00,,,0.00,,2013-02-10 13:42:00,
2013-02-10 08:51:00,61.0,58.0,30.24,ENE,73,3.0,7.0,89,0.00,,,0.00,,2013-02-10 13:51:00,
2013-02-10 09:02:00,62.0,58.0,30.25,ESE,118,4.0,8.0,86,0.00,,,0.00,,2013-02-10 14:02:00,
2013-02-10 09:11:00,62.0,58.0,30.25,ESE,118,4.0,8.0,86,0.00,,,0.00,,2013-02-10 14:11:00,
2013-02-10 09:22:00,64.0,59.0,30.26,East,86,3.0,7.0,83,0.00,,,0.00,,2013-02-10 14:22:00,
2013-02-10 09:32:00,65.0,59.0,30.26,ESE,117,5.0,10.0,81,0.00,,,0.00,,2013-02-10 14:32:00,
2013-02-10 09:42:00,65.0,59.0,30.26,ESE,117,5.0,10.0,81,0.00,,,0.00,,2013-02-10 14:42:00,
2013-02-10 09:52:00,67.0,60.0,30.27,ESE,102,3.0,10.0,78,0.00,,,0.00,,2013-02-10 14:52:00,
2013-02-10 10:02:00,69.0,60.0,30.27,ESE,109,6.0,10.0,73,0.00,,,0.00,,2013-02-10 15:02:00,
2013-02-10 10:12:00,69.0,60.0,30.27,ESE,109,6.0,10.0,73,0.00,,,0.00,,2013-02-10 15:12:00,
2013-02-10 10:22:00,70.0,60.0,30.27,ENE,71,6.0,11.0,71,0.00,,,0.00,,2013-02-10 15:22:00,
2013-02-10 10:32:00,72.0,61.0,30.27,ENE,77,7.0,12.0,69,0.00,,,0.00,,2013-02-10 15:32:00,
2013-02-10 10:42:00,72.0,61.0,30.27,ENE,77,7.0,12.0,69,0.00,,,0.00,,2013-02-10 15:42:00,
2013-02-10 10:52:00,73.0,61.0,30.28,East,101,7.0,14.0,66,0.00,,,0.00,,2013-02-10 15:52:00,
2013-02-10 11:02:00,74.0,61.0,30.28,East,101,6.0,13.0,64,0.00,,,0.00,,2013-02-10 16:02:00,
2013-02-10 11:12:00,73.0,60.0,30.28,ESE,104,9.0,18.0,64,0.00,,,0.00,,2013-02-10 16:12:00,
2013-02-10 11:22:00,73.0,60.0,30.28,ESE,104,9.0,18.0,64,0.00,,,0.00,,2013-02-10 16:22:00,
2013-02-10 11:32:00,74.0,61.0,30.28,ESE,111,6.0,15.0,65,0.00,,,0.00,,2013-02-10 16:32:00,
2013-02-10 11:42:00,73.0,61.0,30.27,SE,134,7.0,16.0,65,0.00,,,0.00,,2013-02-10 16:42:00,
2013-02-10 11:52:00,73.0,61.0,30.27,SE,134,7.0,16.0,65,0.00,,,0.00,,2013-02-10 16:52:00,
2013-02-10 12:02:00,76.0,62.0,30.27,East,91,4.0,17.0,62,0.00,,,0.00,,2013-02-10 17:02:00,
2013-02-10 12:12:00,76.0,62.0,30.27,East,91,4.0,17.0,62,0.00,,,0.00,,2013-02-10 17:12:00,
2013-02-10 12:22:00,76.0,61.0,30.26,ESE,118,8.0,15.0,60,0.00,,,0.00,,2013-02-10 17:22:00,
2013-02-10 12:32:00,76.0,61.0,30.26,SE,132,6.0,14.0,60,0.00,,,0.00,,2013-02-10 17:32:00,
2013-02-10 12:42:00,77.0,62.0,30.25,ESE,107,6.0,10.0,60,0.00,,,0.00,,2013-02-10 17:42:00,
2013-02-10 12:52:00,77.0,62.0,30.25,ESE,107,6.0,10.0,60,0.00,,,0.00,,2013-02-10 17:52:00,
2013-02-10 13:02:00,76.0,62.0,30.24,SE,128,8.0,12.0,61,0.00,,,0.00,,2013-02-10 18:02:00,
2013-02-10 13:12:00,76.0,62.0,30.23,ESE,121,5.0,12.0,61,0.00,,,0.00,,2013-02-10 18:12:00,
2013-02-10 13:22:00,76.0,62.0,30.23,ESE,121,5.0,12.0,61,0.00,,,0.00,,2013-02-10 18:22:00,
2013-02-10 13:32:00,80.0,62.0,30.22,SE,127,7.0,14.0,55,0.00,,,0.00,,2013-02-10 18:32:00,
2013-02-10 13:42:00,80.0,62.0,30.22,SE,127,7.0,14.0,55,0.00,,,0.00,,2013-02-10 18:42:00,
2013-02-10 13:52:00,80.0,62.0,30.21,ESE,115,4.0,9.0,54,0.00,,,0.00,,2013-02-10 18:52:00,
2013-02-10 14:02:00,80.0,61.0,30.20,South,191,7.0,16.0,53,0.00,,,0.00,,2013-02-10 19:02:00,
2013-02-10 14:12:00,81.0,62.0,30.19,ESE,115,7.0,17.0,52,0.00,,,0.00,,2013-02-10 19:12:00,
2013-02-10 14:22:00,81.0,62.0,30.19,ESE,115,7.0,17.0,52,0.00,,,0.00,,2013-02-10 19:22:00,
2013-02-10 14:32:00,81.0,62.0,30.19,ESE,115,7.0,17.0,52,0.00,,,0.00,,2013-02-10 19:32:00,
2013-02-10 14:42:00,82.0,61.0,30.19,ESE,123,6.0,15.0,50,0.00,,,0.00,,2013-02-10 19:42:00,
2013-02-10 14:52:00,82.0,61.0,30.19,ESE,123,6.0,15.0,50,0.00,,,0.00,,2013-02-10 19:52:00,
2013-02-10 15:02:00,82.0,61.0,30.18,ENE,62,5.0,11.0,49,0.00,,,0.00,,2013-02-10 20:02:00,
2013-02-10 15:11:00,82.0,61.0,30.18,ENE,62,5.0,11.0,49,0.00,,,0.00,,2013-02-10 20:11:00,
2013-02-10 15:22:00,82.0,61.0,30.18,ENE,62,5.0,11.0,49,0.00,,,0.00,,2013-02-10 20:22:00,
2013-02-10 15:32:00,82.0,61.0,30.18,ENE,62,5.0,11.0,49,0.00,,,0.00,,2013-02-10 20:32:00,
2013-02-10 16:03:00,80.0,60.0,30.17,SW,227,4.0,12.0,50,0.00,,,0.00,,2013-02-10 21:03:00,
2013-02-10 16:12:00,80.0,60.0,30.17,SW,227,4.0,12.0,50,0.00,,,0.00,,2013-02-10 21:12:00,
2013-02-10 16:22:00,80.0,60.0,30.17,SE,142,7.0,14.0,51,0.00,,,0.00,,2013-02-10 21:22:00,
2013-02-10 16:32:00,80.0,60.0,30.17,SE,142,7.0,14.0,51,0.00,,,0.00,,2013-02-10 21:32:00,
2013-02-10 16:42:00,78.0,60.0,30.16,South,180,5.0,15.0,54,0.00,,,0.00,,2013-02-10 21:42:00,
2013-02-10 16:52:00,78.0,60.0,30.16,South,180,5.0,15.0,54,0.00,,,0.00,,2013-02-10 21:52:00,
2013-02-10 17:02:00,79.0,60.0,30.16,SE,134,6.0,11.0,53,0.00,,,0.00,,2013-02-10 22:02:00,
2013-02-10 17:12:00,78.0,60.0,30.16,SE,142,7.0,14.0,54,0.00,,,0.00,,2013-02-10 22:12:00,
2013-02-10 17:22:00,78.0,60.0,30.16,SE,142,7.0,14.0,54,0.00,,,0.00,,2013-02-10 22:22:00,
2013-02-10 17:32:00,77.0,60.0,30.17,ESE,109,7.0,13.0,56,0.00,,,0.00,,2013-02-10 22:32:00,
2013-02-10 17:42:00,76.0,60.0,30.17,SE,131,3.0,14.0,58,0.00,,,0.00,,2013-02-10 22:42:00,
2013-02-10 17:52:00,76.0,60.0,30.17,SE,131,3.0,14.0,58,0.00,,,0.00,,2013-02-10 22:52:00,
2013-02-10 18:02:00,75.0,60.0,30.17,ESE,121,4.0,10.0,60,0.00,,,0.00,,2013-02-10 23:02:00,
2013-02-10 18:12:00,75.0,60.0,30.17,ESE,121,4.0,10.0,60,0.00,,,0.00,,2013-02-10 23:12:00,
2013-02-10 18:22:00,74.0,60.0,30.17,ESE,115,3.0,12.0,62,0.00,,,0.00,,2013-02-10 23:22:00,
2013-02-10 18:32:00,74.0,60.0,30.17,ESE,115,3.0,12.0,62,0.00,,,0.00,,2013-02-10 23:32:00,
2013-02-10 18:42:00,72.0,60.0,30.18,SE,142,5.0,11.0,65,0.00,,,0.00,,2013-02-10 23:42:00,
2013-02-10 18:52:00,72.0,60.0,30.18,SE,142,5.0,11.0,65,0.00,,,0.00,,2013-02-10 23:52:00,
2013-02-10 19:02:00,71.0,60.0,30.18,ESE,115,6.0,12.0,68,0.00,,,0.00,,2013-02-11 00:02:00,
2013-02-10 19:11:00,71.0,60.0,30.18,ESE,115,6.0,12.0,68,0.00,,,0.00,,2013-02-11 00:11:00,
2013-02-10 19:22:00,70.0,60.0,30.19,SE,132,4.0,11.0,70,0.00,,,0.00,,2013-02-11 00:22:00,
2013-02-10 19:32:00,69.0,60.0,30.19,ESE,109,3.0,8.0,72,0.00,,,0.00,,2013-02-11 00:32:00,
2013-02-10 19:42:00,69.0,60.0,30.19,ESE,109,3.0,8.0,72,0.00,,,0.00,,2013-02-11 00:42:00,
2013-02-10 19:52:00,69.0,60.0,30.19,ESE,108,5.0,12.0,72,0.00,,,0.00,,2013-02-11 00:52:00,
2013-02-10 20:01:00,68.0,59.0,30.20,ESE,116,4.0,10.0,73,0.00,,,0.00,,2013-02-11 01:01:00,
2013-02-10 20:11:00,68.0,59.0,30.20,ESE,116,4.0,10.0,73,0.00,,,0.00,,2013-02-11 01:11:00,
2013-02-10 20:21:00,68.0,60.0,30.21,East,101,4.0,11.0,75,0.00,,,0.00,,2013-02-11 01:21:00,
2013-02-10 20:32:00,67.0,59.0,30.21,ESE,116,5.0,10.0,76,0.00,,,0.00,,2013-02-11 01:32:00,
2013-02-10 20:42:00,67.0,59.0,30.21,ESE,116,5.0,10.0,76,0.00,,,0.00,,2013-02-11 01:42:00,
2013-02-10 20:52:00,67.0,59.0,30.21,ESE,112,5.0,11.0,76,0.00,,,0.00,,2013-02-11 01:52:00,
2013-02-10 21:01:00,66.0,59.0,30.22,East,92,4.0,9.0,78,0.00,,,0.00,,2013-02-11 02:01:00,
2013-02-10 21:11:00,66.0,59.0,30.22,East,92,4.0,9.0,78,0.00,,,0.00,,2013-02-11 02:11:00,
2013-02-10 21:21:00,66.0,59.0,30.22,ESE,115,5.0,9.0,78,0.00,,,0.00,,2013-02-11 02:21:00,
2013-02-10 21:32:00,65.0,58.0,30.22,SE,137,3.0,10.0,79,0.00,,,0.00,,2013-02-11 02:32:00,
2013-02-10 21:42:00,65.0,59.0,30.22,SE,138,4.0,7.0,80,0.00,,,0.00,,2013-02-11 02:42:00,
2013-02-10 21:52:00,65.0,59.0,30.22,SE,138,4.0,7.0,80,0.00,,,0.00,,2013-02-11 02:52:00,
2013-02-10 22:02:00,64.0,58.0,30.22,ESE,111,3.0,8.0,81,0.00,,,0.00,,2013-02-11 03:02:00,
2013-02-10 22:11:00,64.0,58.0,30.22,ESE,111,3.0,8.0,81,0.00,,,0.00,,2013-02-11 03:11:00,
2013-02-10 22:21:00,64.0,58.0,30.22,SE,124,2.0,9.0,82,0.00,,,0.00,,2013-02-11 03:21:00,
2013-02-10 22:32:00,63.0,58.0,30.21,SE,124,2.0,6.0,83,0.00,,,0.00,,2013-02-11 03:32:00,
2013-02-10 22:42:00,63.0,58.0,30.22,ESE,116,2.0,5.0,84,0.00,,,0.00,,2013-02-11 03:42:00,
2013-02-10 22:52:00,63.0,58.0,30.22,ESE,116,2.0,5.0,84,0.00,,,0.00,,2013-02-11 03:52:00,
2013-02-10 23:02:00,63.0,58.0,30.22,ESE,123,3.0,5.0,85,0.00,,,0.00,,2013-02-11 04:02:00,
2013-02-10 23:11:00,63.0,58.0,30.22,ESE,123,3.0,5.0,85,0.00,,,0.00,,2013-02-11 04:11:00,
2013-02-10 23:22:00,62.0,58.0,30.22,SE,125,2.0,4.0,86,0.00,,,0.00,,2013-02-11 04:22:00,
2013-02-10 23:32:00,62.0,58.0,30.22,ESE,123,2.0,5.0,87,0.00,,,0.00,,2013-02-11 04:32:00,
2013-02-10 23:42:00,62.0,58.0,30.22,ESE,123,2.0,5.0,87,0.00,,,0.00,,2013-02-11 04:42:00,
2013-02-10 23:52:00,61.0,57.0,30.22,SE,136,1.0,5.0,88,0.00,,,0.00,,2013-02-11 04:52:00,